| time (UTC) | temp F | wind direction | speed MPH | gust MPH | rain 1hr in | rain 24hr in | rain mn in | humidity % | barometer mb |
| 20260510112613 | 55 | 339 | 0.0 | 0.0 | 0.00 | 0.00 | 0.00 | 95 | 1018.1 |
| 20260510112109 | 55 | 339 | 0.0 | 0.0 | 0.00 | 0.00 | 0.00 | 95 | 1017.6 |
| 20260510111606 | 55 | 339 | 0.0 | 0.0 | 0.00 | 0.00 | 0.00 | 95 | 1017.6 |
| 20260510111101 | 55 | 339 | 0.0 | 0.0 | 0.00 | 0.00 | 0.00 | 95 | 1017.6 |
| 20260510110553 | 55 | 339 | 0.0 | 0.0 | 0.00 | 0.00 | 0.00 | 95 | 1018.1 |
| 20260510110049 | 55 | 329 | 0.0 | 0.0 | 0.00 | 0.00 | 0.00 | 95 | 1017.6 |
| 20260510105544 | 55 | 306 | 0.0 | 0.0 | 0.00 | 0.00 | 0.00 | 95 | 1017.6 |
| 20260510105040 | 55 | 306 | 0.0 | 0.0 | 0.00 | 0.00 | 0.00 | 95 | 1018.1 |
| 20260510104536 | 55 | 306 | 0.0 | 0.0 | 0.00 | 0.00 | 0.00 | 95 | 1017.6 |
| 20260510104032 | 55 | 306 | 0.0 | 0.0 | 0.00 | 0.00 | 0.00 | 95 | 1017.6 |
| 20260510103531 | 55 | 306 | 0.0 | 0.0 | 0.00 | 0.00 | 0.00 | 95 | 1017.6 |
| 20260510103026 | 55 | 306 | 0.0 | 0.0 | 0.00 | 0.00 | 0.00 | 95 | 1017.3 |
| 20260510102522 | 55 | 306 | 0.0 | 0.0 | 0.00 | 0.00 | 0.00 | 95 | 1017.0 |
| 20260510102018 | 55 | 306 | 0.0 | 0.0 | 0.00 | 0.00 | 0.00 | 95 | 1017.0 |
| 20260510101516 | 55 | 306 | 0.0 | 0.0 | 0.00 | 0.00 | 0.00 | 95 | 1017.3 |
| 20260510101015 | 55 | 306 | 0.0 | 0.0 | 0.00 | 0.00 | 0.00 | 95 | 1017.0 |
| 20260510100510 | 55 | 306 | 0.0 | 0.0 | 0.00 | 0.00 | 0.00 | 95 | 1016.6 |
| 20260510100007 | 55 | 306 | 0.0 | 0.0 | 0.00 | 0.00 | 0.00 | 95 | 1016.6 |
| 20260510095503 | 55 | 306 | 0.0 | 0.0 | 0.00 | 0.00 | 0.00 | 95 | 1017.0 |
| 20260510095002 | 55 | 306 | 0.0 | 0.0 | 0.00 | 0.00 | 0.00 | 95 | 1016.3 |
| 20260510094456 | 55 | 306 | 0.0 | 0.0 | 0.00 | 0.00 | 0.00 | 95 | 1016.3 |
| 20260510093953 | 55 | 306 | 0.0 | 0.0 | 0.00 | 0.00 | 0.00 | 95 | 1016.3 |
| 20260510093448 | 55 | 306 | 0.0 | 0.0 | 0.00 | 0.00 | 0.00 | 94 | 1016.6 |
| 20260510092945 | 55 | 306 | 0.0 | 0.0 | 0.00 | 0.00 | 0.00 | 94 | 1016.3 |
| 20260510092442 | 55 | 306 | 0.0 | 0.0 | 0.00 | 0.00 | 0.00 | 94 | 1016.3 |
| 20260510091936 | 55 | 306 | 0.0 | 0.0 | 0.00 | 0.00 | 0.00 | 94 | 1016.3 |
| 20260510091434 | 55 | 306 | 0.0 | 0.0 | 0.00 | 0.00 | 0.00 | 94 | 1015.9 |
| 20260510090930 | 55 | 306 | 0.0 | 0.0 | 0.00 | 0.00 | 0.00 | 94 | 1016.3 |
| 20260510090427 | 55 | 306 | 0.0 | 0.0 | 0.00 | 0.00 | 0.00 | 94 | 1015.9 |
| 20260510085923 | 55 | 306 | 0.0 | 0.0 | 0.00 | 0.00 | 0.00 | 93 | 1015.9 |
| 20260510085418 | 56 | 306 | 0.0 | 0.0 | 0.00 | 0.00 | 0.00 | 93 | 1015.9 |
| 20260510084913 | 56 | 306 | 0.0 | 0.0 | 0.00 | 0.00 | 0.00 | 93 | 1015.9 |
| 20260510084411 | 55 | 306 | 0.0 | 0.0 | 0.00 | 0.00 | 0.00 | 93 | 1015.9 |
| 20260510083908 | 55 | 306 | 0.0 | 0.0 | 0.00 | 0.00 | 0.00 | 93 | 1015.9 |
| 20260510083404 | 56 | 306 | 0.0 | 0.0 | 0.00 | 0.00 | 0.00 | 93 | 1015.6 |
| 20260510082900 | 56 | 306 | 0.0 | 0.0 | 0.00 | 0.00 | 0.00 | 93 | 1015.9 |
| 20260510082357 | 56 | 306 | 0.0 | 0.0 | 0.00 | 0.00 | 0.00 | 94 | 1015.6 |
| 20260510081856 | 55 | 306 | 0.0 | 0.0 | 0.00 | 0.00 | 0.00 | 93 | 1015.6 |
| 20260510081352 | 55 | 306 | 0.0 | 0.0 | 0.00 | 0.00 | 0.00 | 93 | 1015.6 |
| 20260510080849 | 56 | 306 | 0.0 | 0.0 | 0.00 | 0.00 | 0.00 | 93 | 1015.6 |
| 20260510080348 | 56 | 306 | 0.0 | 0.0 | 0.00 | 0.00 | 0.00 | 93 | 1015.3 |
| 20260510075845 | 56 | 306 | 0.0 | 0.0 | 0.00 | 0.00 | 0.00 | 93 | 1015.3 |
| 20260510075343 | 56 | 306 | 0.0 | 0.0 | 0.00 | 0.00 | 0.00 | 93 | 1014.9 |
| 20260510074839 | 56 | 306 | 0.0 | 0.0 | 0.00 | 0.00 | 0.00 | 93 | 1015.6 |
| 20260510074337 | 56 | 306 | 0.0 | 0.0 | 0.00 | 0.00 | 0.00 | 92 | 1015.3 |
| 20260510073833 | 56 | 306 | 0.0 | 0.0 | 0.00 | 0.00 | 0.00 | 92 | 1015.3 |
| 20260510073324 | 56 | 306 | 0.0 | 0.0 | 0.00 | 0.00 | 0.00 | 93 | 1015.3 |
| 20260510072820 | 56 | 306 | 0.0 | 0.0 | 0.00 | 0.00 | 0.00 | 93 | 1015.3 |
| 20260510072316 | 56 | 306 | 0.0 | 0.0 | 0.00 | 0.00 | 0.00 | 93 | 1015.3 |
| 20260510071813 | 56 | 306 | 0.0 | 0.0 | 0.00 | 0.00 | 0.00 | 93 | 1015.3 |
| 20260510071308 | 56 | 306 | 0.0 | 0.0 | 0.00 | 0.00 | 0.00 | 93 | 1015.6 |
| 20260510070808 | 56 | 306 | 0.0 | 0.0 | 0.00 | 0.00 | 0.00 | 93 | 1015.3 |
| 20260510070304 | 56 | 307 | 0.0 | 0.0 | 0.00 | 0.00 | 0.00 | 93 | 1015.3 |
| 20260510065804 | 56 | 307 | 0.0 | 0.0 | 0.00 | 0.00 | 0.00 | 93 | 1015.3 |
| 20260510065301 | 56 | 306 | 0.0 | 0.0 | 0.00 | 0.00 | 0.00 | 92 | 1015.3 |
| 20260510064758 | 56 | 306 | 0.0 | 0.0 | 0.00 | 0.00 | 0.00 | 92 | 1015.3 |
| 20260510064256 | 56 | 306 | 0.0 | 0.0 | 0.00 | 0.00 | 0.00 | 92 | 1015.3 |
| 20260510063751 | 56 | 306 | 0.0 | 0.0 | 0.00 | 0.00 | 0.00 | 91 | 1015.3 |
| 20260510063248 | 57 | 306 | 0.0 | 0.0 | 0.00 | 0.00 | 0.00 | 91 | 1014.9 |
| 20260510062745 | 57 | 306 | 0.0 | 0.0 | 0.00 | 0.00 | 0.00 | 90 | 1014.9 |
| 20260510062241 | 57 | 307 | 1.0 | 1.0 | 0.00 | 0.00 | 0.00 | 90 | 1014.9 |
| 20260510061736 | 57 | 307 | 0.0 | 0.0 | 0.00 | 0.00 | 0.00 | 89 | 1014.9 |
| 20260510061233 | 57 | 307 | 0.0 | 0.0 | 0.00 | 0.00 | 0.00 | 89 | 1014.9 |
| 20260510060729 | 57 | 307 | 0.0 | 0.0 | 0.00 | 0.00 | 0.00 | 89 | 1014.9 |
| 20260510060226 | 58 | 307 | 0.0 | 0.0 | 0.00 | 0.00 | 0.00 | 89 | 1014.6 |
| 20260510055723 | 58 | 307 | 0.0 | 0.0 | 0.00 | 0.00 | 0.00 | 89 | 1014.6 |
| 20260510055222 | 58 | 291 | 2.0 | 2.0 | 0.00 | 0.00 | 0.00 | 90 | 1014.6 |
| 20260510054721 | 58 | 299 | 1.0 | 2.0 | 0.00 | 0.00 | 0.00 | 91 | 1014.6 |
| 20260510054217 | 58 | 313 | 0.0 | 0.0 | 0.00 | 0.00 | 0.00 | 91 | 1014.9 |
| 20260510053711 | 58 | 313 | 0.0 | 0.0 | 0.00 | 0.00 | 0.00 | 91 | 1014.9 |
| 20260510053208 | 58 | 314 | 0.0 | 0.0 | 0.00 | 0.00 | 0.00 | 91 | 1015.3 |
| 20260510052703 | 57 | 314 | 0.0 | 0.0 | 0.00 | 0.00 | 0.00 | 91 | 1015.3 |
| 20260510052200 | 57 | 314 | 0.0 | 0.0 | 0.00 | 0.00 | 0.00 | 91 | 1014.9 |
| 20260510051655 | 57 | 314 | 0.0 | 0.0 | 0.00 | 0.00 | 0.00 | 91 | 1014.9 |
| 20260510051152 | 57 | 314 | 0.0 | 0.0 | 0.00 | 0.00 | 0.00 | 91 | 1014.9 |
| 20260510050650 | 57 | 314 | 0.0 | 0.0 | 0.00 | 0.00 | 0.00 | 91 | 1014.9 |
| 20260510050147 | 57 | 314 | 0.0 | 0.0 | 0.00 | 0.00 | 0.00 | 91 | 1014.6 |
| 20260510045643 | 57 | 314 | 0.0 | 0.0 | 0.00 | 0.01 | 0.01 | 91 | 1014.6 |
| 20260510045140 | 58 | 314 | 0.0 | 0.0 | 0.00 | 0.01 | 0.01 | 90 | 1014.6 |
| 20260510044636 | 58 | 314 | 0.0 | 0.0 | 0.00 | 0.01 | 0.01 | 90 | 1014.6 |
| 20260510044134 | 58 | 314 | 0.0 | 0.0 | 0.00 | 0.01 | 0.01 | 89 | 1014.2 |
| 20260510043629 | 59 | 314 | 0.0 | 0.0 | 0.00 | 0.01 | 0.01 | 88 | 1014.2 |
| 20260510043126 | 59 | 317 | 0.0 | 0.0 | 0.00 | 0.01 | 0.01 | 88 | 1014.2 |
| 20260510042624 | 59 | 318 | 0.0 | 0.0 | 0.00 | 0.01 | 0.01 | 88 | 1014.6 |
| 20260510042119 | 59 | 318 | 0.0 | 0.0 | 0.00 | 0.01 | 0.01 | 87 | 1014.2 |
| 20260510041617 | 59 | 318 | 1.0 | 1.0 | 0.00 | 0.01 | 0.01 | 88 | 1013.8 |
| 20260510041114 | 59 | 350 | 0.0 | 0.0 | 0.00 | 0.01 | 0.01 | 87 | 1014.2 |
| 20260510040612 | 59 | 350 | 0.0 | 0.0 | 0.00 | 0.01 | 0.01 | 88 | 1014.2 |
| 20260510040108 | 59 | 343 | 0.0 | 0.0 | 0.00 | 0.01 | 0.01 | 88 | 1013.8 |
| 20260510035604 | 58 | 326 | 1.0 | 1.0 | 0.00 | 0.01 | 0.01 | 88 | 1013.8 |
| 20260510035103 | 57 | 305 | 2.0 | 2.0 | 0.00 | 0.01 | 0.01 | 92 | 1013.8 |
| 20260510034601 | 57 | 348 | 3.0 | 3.0 | 0.00 | 0.01 | 0.01 | 90 | 1013.5 |
| 20260510034058 | 57 | 305 | 0.0 | 0.0 | 0.00 | 0.01 | 0.01 | 92 | 1013.5 |
| 20260510033555 | 57 | 305 | 0.0 | 0.0 | 0.00 | 0.01 | 0.01 | 91 | 1013.1 |
| 20260510033052 | 58 | 305 | 0.0 | 0.0 | 0.00 | 0.01 | 0.01 | 91 | 1013.1 |
| 20260510032549 | 58 | 305 | 0.0 | 0.0 | 0.00 | 0.01 | 0.01 | 90 | 1013.1 |
| 20260510032044 | 58 | 304 | 0.0 | 0.0 | 0.00 | 0.01 | 0.01 | 90 | 1012.8 |
| 20260510031544 | 58 | 304 | 0.0 | 0.0 | 0.00 | 0.01 | 0.01 | 90 | 1013.1 |
| 20260510031041 | 59 | 315 | 0.0 | 0.0 | 0.00 | 0.01 | 0.01 | 90 | 1012.8 |
| 20260510030536 | 59 | 316 | 0.0 | 0.0 | 0.00 | 0.01 | 0.01 | 90 | 1013.1 |
| 20260510030034 | 59 | 316 | 0.0 | 0.0 | 0.00 | 0.01 | 0.01 | 90 | 1012.8 |
| 20260510025531 | 59 | 316 | 0.0 | 0.0 | 0.00 | 0.01 | 0.01 | 89 | 1013.1 |
| 20260510025029 | 59 | 316 | 0.0 | 0.0 | 0.00 | 0.01 | 0.01 | 88 | 1012.8 |
| 20260510024525 | 59 | 316 | 0.0 | 0.0 | 0.00 | 0.01 | 0.01 | 89 | 1012.8 |
| 20260510024021 | 60 | 316 | 0.0 | 0.0 | 0.00 | 0.01 | 0.01 | 88 | 1012.8 |
| 20260510023517 | 60 | 316 | 0.0 | 0.0 | 0.00 | 0.01 | 0.01 | 86 | 1012.5 |
| 20260510023015 | 60 | 316 | 0.0 | 0.0 | 0.00 | 0.01 | 0.01 | 87 | 1012.5 |
| 20260510022514 | 60 | 316 | 0.0 | 0.0 | 0.00 | 0.01 | 0.01 | 86 | 1012.1 |
| 20260510022014 | 60 | 316 | 0.0 | 0.0 | 0.00 | 0.01 | 0.01 | 85 | 1012.1 |
| 20260510021511 | 61 | 316 | 0.0 | 0.0 | 0.00 | 0.01 | 0.01 | 84 | 1012.1 |
| 20260510021008 | 61 | 316 | 0.0 | 0.0 | 0.00 | 0.01 | 0.01 | 82 | 1011.8 |
| 20260510020502 | 62 | 316 | 0.0 | 0.0 | 0.00 | 0.01 | 0.01 | 82 | 1011.8 |
| 20260510015958 | 62 | 316 | 0.0 | 0.0 | 0.00 | 0.01 | 0.01 | 82 | 1011.8 |
| 20260510015454 | 62 | 323 | 0.0 | 0.0 | 0.00 | 0.01 | 0.01 | 81 | 1011.8 |
| 20260510014949 | 63 | 323 | 0.0 | 0.0 | 0.00 | 0.01 | 0.01 | 80 | 1011.8 |
| 20260510014447 | 63 | 329 | 0.0 | 0.0 | 0.00 | 0.01 | 0.01 | 80 | 1011.4 |
| 20260510013944 | 63 | 329 | 0.0 | 0.0 | 0.00 | 0.01 | 0.01 | 79 | 1011.4 |
| 20260510013438 | 64 | 329 | 0.0 | 0.0 | 0.00 | 0.01 | 0.01 | 78 | 1011.4 |
| 20260510012934 | 64 | 329 | 0.0 | 0.0 | 0.00 | 0.01 | 0.01 | 76 | 1011.4 |
| 20260510012429 | 65 | 311 | 0.0 | 0.0 | 0.00 | 0.01 | 0.01 | 76 | 1011.1 |
| 20260510011924 | 66 | 311 | 0.0 | 0.0 | 0.00 | 0.01 | 0.01 | 74 | 1010.8 |
| 20260510011419 | 66 | 327 | 0.0 | 0.0 | 0.00 | 0.01 | 0.01 | 74 | 1010.8 |
| 20260510010916 | 67 | 327 | 0.0 | 0.0 | 0.00 | 0.01 | 0.01 | 72 | 1011.1 |
| 20260510010413 | 68 | 327 | 0.0 | 0.0 | 0.00 | 0.01 | 0.01 | 71 | 1010.8 |
| 20260510005909 | 68 | 327 | 0.0 | 0.0 | 0.00 | 0.01 | 0.01 | 68 | 1010.8 |
| 20260510005406 | 69 | 327 | 0.0 | 0.0 | 0.00 | 0.01 | 0.01 | 67 | 1010.8 |
| 20260510004903 | 69 | 326 | 0.0 | 0.0 | 0.00 | 0.01 | 0.01 | 64 | 1011.1 |
| 20260510004401 | 70 | 326 | 0.0 | 0.0 | 0.00 | 0.01 | 0.01 | 63 | 1010.8 |
| 20260510003858 | 70 | 326 | 0.0 | 0.0 | 0.00 | 0.01 | 0.01 | 62 | 1010.8 |
| 20260510003355 | 70 | 326 | 0.0 | 0.0 | 0.00 | 0.01 | 0.01 | 59 | 1010.4 |
| 20260510002854 | 71 | 326 | 0.0 | 0.0 | 0.00 | 0.01 | 0.01 | 58 | 1010.8 |
| 20260510002351 | 71 | 326 | 0.0 | 0.0 | 0.00 | 0.01 | 0.01 | 58 | 1010.8 |
| 20260510001848 | 71 | 326 | 0.0 | 0.0 | 0.00 | 0.01 | 0.01 | 57 | 1010.8 |
| 20260510001346 | 71 | 326 | 0.0 | 0.0 | 0.00 | 0.01 | 0.01 | 55 | 1010.4 |
| 20260510000842 | 72 | 326 | 0.0 | 0.0 | 0.00 | 0.01 | 0.01 | 55 | 1010.4 |
| 20260510000341 | 72 | 326 | 0.0 | 0.0 | 0.00 | 0.01 | 0.01 | 52 | 1010.4 |
| 20260509235836 | 73 | 326 | 0.0 | 0.0 | 0.00 | 0.01 | 0.01 | 50 | 1010.4 |
| 20260509235332 | 73 | 326 | 0.0 | 0.0 | 0.00 | 0.01 | 0.01 | 50 | 1010.8 |
| 20260509234828 | 74 | 326 | 0.0 | 0.0 | 0.00 | 0.01 | 0.01 | 48 | 1010.8 |
| 20260509234326 | 75 | 326 | 0.0 | 0.0 | 0.00 | 0.01 | 0.01 | 47 | 1010.4 |
| 20260509233823 | 75 | 326 | 0.0 | 0.0 | 0.00 | 0.01 | 0.01 | 47 | 1010.8 |
| 20260509233321 | 75 | 326 | 0.0 | 0.0 | 0.00 | 0.01 | 0.01 | 45 | 1010.8 |
| 20260509232816 | 76 | 325 | 0.0 | 0.0 | 0.00 | 0.01 | 0.01 | 42 | 1010.4 |
| 20260509232314 | 76 | 325 | 0.0 | 0.0 | 0.00 | 0.01 | 0.01 | 44 | 1010.4 |
| 20260509231810 | 77 | 325 | 0.0 | 0.0 | 0.00 | 0.01 | 0.01 | 40 | 1010.4 |
| 20260509231307 | 77 | 325 | 0.0 | 0.0 | 0.00 | 0.01 | 0.01 | 38 | 1010.8 |
| 20260509230805 | 78 | 325 | 0.0 | 0.0 | 0.00 | 0.01 | 0.01 | 38 | 1010.4 |
| 20260509230302 | 78 | 325 | 0.0 | 0.0 | 0.00 | 0.01 | 0.01 | 36 | 1010.4 |
| 20260509225757 | 79 | 325 | 1.0 | 1.0 | 0.00 | 0.01 | 0.01 | 38 | 1010.4 |
| 20260509225254 | 78 | 311 | 2.0 | 2.0 | 0.00 | 0.01 | 0.01 | 34 | 1010.4 |
| 20260509224749 | 78 | 322 | 0.0 | 0.0 | 0.00 | 0.01 | 0.01 | 37 | 1010.1 |
| 20260509224247 | 78 | 321 | 1.0 | 1.0 | 0.00 | 0.01 | 0.01 | 36 | 1010.4 |
| 20260509223743 | 79 | 323 | 0.0 | 0.0 | 0.00 | 0.01 | 0.01 | 37 | 1010.4 |
| 20260509223240 | 80 | 323 | 1.0 | 1.0 | 0.00 | 0.01 | 0.01 | 36 | 1010.4 |
| 20260509222737 | 80 | 324 | 0.0 | 0.0 | 0.00 | 0.01 | 0.01 | 33 | 1010.4 |
| 20260509222232 | 80 | 336 | 0.0 | 0.0 | 0.00 | 0.01 | 0.01 | 34 | 1010.4 |
| 20260509221728 | 80 | 316 | 2.0 | 2.0 | 0.00 | 0.01 | 0.01 | 36 | 1010.4 |
| 20260509221225 | 80 | 339 | 1.0 | 1.0 | 0.00 | 0.01 | 0.01 | 34 | 1010.1 |
| 20260509220720 | 81 | 324 | 1.0 | 1.0 | 0.00 | 0.01 | 0.01 | 34 | 1010.4 |
| 20260509220218 | 81 | 346 | 0.0 | 0.0 | 0.00 | 0.01 | 0.01 | 32 | 1010.4 |
| 20260509215713 | 82 | 324 | 0.0 | 0.0 | 0.00 | 0.01 | 0.01 | 33 | 1010.4 |
| 20260509215210 | 84 | 332 | 0.0 | 0.0 | 0.00 | 0.01 | 0.01 | 31 | 1010.4 |
| 20260509214707 | 84 | 349 | 0.0 | 0.0 | 0.00 | 0.01 | 0.01 | 29 | 1010.4 |
| 20260509214204 | 84 | 323 | 1.0 | 1.0 | 0.00 | 0.01 | 0.01 | 28 | 1010.4 |
| 20260509213701 | 84 | 323 | 0.0 | 0.0 | 0.00 | 0.01 | 0.01 | 27 | 1010.4 |
| 20260509213156 | 84 | 325 | 0.0 | 0.0 | 0.00 | 0.01 | 0.01 | 25 | 1010.4 |
| 20260509212654 | 84 | 315 | 0.0 | 0.0 | 0.00 | 0.01 | 0.01 | 30 | 1010.8 |
| 20260509212151 | 85 | 0 | 3.0 | 5.0 | 0.00 | 0.01 | 0.01 | 25 | 1010.8 |
| 20260509211646 | 85 | 333 | 0.0 | 0.0 | 0.00 | 0.01 | 0.01 | 27 | 1010.4 |
| 20260509211143 | 85 | 326 | 1.0 | 1.0 | 0.00 | 0.01 | 0.01 | 30 | 1010.8 |
| 20260509210641 | 86 | 343 | 1.0 | 0.0 | 0.00 | 0.01 | 0.01 | 29 | 1010.8 |
| 20260509210137 | 86 | 328 | 1.0 | 1.0 | 0.00 | 0.01 | 0.01 | 29 | 1010.8 |
| 20260509205632 | 85 | 330 | 0.0 | 1.0 | 0.00 | 0.01 | 0.01 | 28 | 1010.4 |
| 20260509205127 | 84 | 329 | 0.0 | 0.0 | 0.00 | 0.01 | 0.01 | 31 | 1010.8 |
| 20260509204623 | 85 | 324 | 2.0 | 2.0 | 0.00 | 0.01 | 0.01 | 27 | 1010.8 |
| 20260509204119 | 84 | 18 | 1.0 | 2.0 | 0.00 | 0.01 | 0.01 | 29 | 1010.8 |
| 20260509203616 | 84 | 88 | 4.0 | 5.0 | 0.00 | 0.01 | 0.01 | 26 | 1010.8 |
| 20260509203109 | 85 | 343 | 0.0 | 1.0 | 0.00 | 0.01 | 0.01 | 28 | 1011.1 |
| 20260509202608 | 85 | 346 | 1.0 | 1.0 | 0.00 | 0.01 | 0.01 | 29 | 1010.8 |
| 20260509202059 | 84 | 346 | 1.0 | 1.0 | 0.00 | 0.01 | 0.01 | 27 | 1011.1 |
| 20260509201558 | 84 | 346 | 1.0 | 1.0 | 0.00 | 0.01 | 0.01 | 27 | 1011.1 |
| 20260509201057 | 84 | 1 | 6.0 | 8.0 | 0.00 | 0.01 | 0.01 | 28 | 1011.1 |
| 20260509200556 | 85 | 352 | 0.0 | 1.0 | 0.00 | 0.01 | 0.01 | 27 | 1011.1 |
| 20260509200053 | 85 | 346 | 3.0 | 5.0 | 0.00 | 0.01 | 0.01 | 29 | 1011.4 |
| 20260509195548 | 85 | 299 | 1.0 | 2.0 | 0.00 | 0.01 | 0.01 | 28 | 1011.4 |
| 20260509195043 | 85 | 10 | 1.0 | 2.0 | 0.00 | 0.01 | 0.01 | 27 | 1011.4 |
| 20260509194538 | 83 | 20 | 2.0 | 2.0 | 0.00 | 0.01 | 0.01 | 31 | 1011.4 |
| 20260509194036 | 83 | 317 | 2.0 | 2.0 | 0.00 | 0.01 | 0.01 | 29 | 1011.1 |
| 20260509193531 | 84 | 11 | 1.0 | 1.0 | 0.00 | 0.01 | 0.01 | 29 | 1011.4 |
| 20260509193027 | 84 | 191 | 3.0 | 5.0 | 0.00 | 0.01 | 0.01 | 30 | 1011.1 |
| 20260509192523 | 83 | 344 | 2.0 | 2.0 | 0.00 | 0.01 | 0.01 | 29 | 1011.4 |
| 20260509192019 | 83 | 351 | 2.0 | 3.0 | 0.00 | 0.01 | 0.01 | 30 | 1011.1 |
| 20260509191513 | 83 | 52 | 3.0 | 3.0 | 0.00 | 0.01 | 0.01 | 29 | 1011.4 |
| 20260509191009 | 83 | 4 | 3.0 | 5.0 | 0.00 | 0.01 | 0.01 | 29 | 1011.4 |
| 20260509190507 | 83 | 17 | 2.0 | 2.0 | 0.00 | 0.01 | 0.01 | 30 | 1011.8 |
| 20260509190005 | 83 | 100 | 4.0 | 5.0 | 0.00 | 0.01 | 0.01 | 31 | 1011.4 |
| 20260509185501 | 83 | 336 | 0.0 | 1.0 | 0.00 | 0.01 | 0.01 | 32 | 1011.8 |
| 20260509184958 | 83 | 351 | 2.0 | 2.0 | 0.00 | 0.01 | 0.01 | 31 | 1011.4 |
| 20260509184457 | 83 | 8 | 2.0 | 3.0 | 0.00 | 0.01 | 0.01 | 31 | 1011.4 |
| 20260509183952 | 83 | 9 | 5.0 | 7.0 | 0.00 | 0.01 | 0.01 | 31 | 1011.8 |
| 20260509183447 | 83 | 312 | 1.0 | 1.0 | 0.00 | 0.01 | 0.01 | 31 | 1011.4 |
| 20260509182944 | 82 | 341 | 3.0 | 3.0 | 0.00 | 0.01 | 0.01 | 33 | 1011.4 |
| 20260509182440 | 82 | 351 | 2.0 | 2.0 | 0.00 | 0.01 | 0.01 | 32 | 1011.4 |
| 20260509181937 | 82 | 25 | 3.0 | 3.0 | 0.00 | 0.01 | 0.01 | 32 | 1011.8 |
| 20260509181435 | 82 | 351 | 3.0 | 5.0 | 0.00 | 0.01 | 0.01 | 33 | 1011.8 |
| 20260509180933 | 82 | 353 | 2.0 | 3.0 | 0.00 | 0.01 | 0.01 | 34 | 1011.8 |
| 20260509180428 | 82 | 19 | 4.0 | 5.0 | 0.00 | 0.01 | 0.01 | 35 | 1011.8 |
| 20260509175925 | 81 | 354 | 2.0 | 2.0 | 0.00 | 0.01 | 0.01 | 36 | 1011.8 |
| 20260509175422 | 81 | 350 | 1.0 | 1.0 | 0.00 | 0.01 | 0.01 | 35 | 1011.8 |
| 20260509174917 | 81 | 42 | 3.0 | 3.0 | 0.00 | 0.01 | 0.01 | 38 | 1011.8 |
| 20260509174414 | 81 | 47 | 1.0 | 1.0 | 0.00 | 0.01 | 0.01 | 36 | 1011.8 |
| 20260509173909 | 81 | 348 | 5.0 | 5.0 | 0.00 | 0.01 | 0.01 | 38 | 1011.8 |
| 20260509173404 | 82 | 351 | 5.0 | 6.0 | 0.00 | 0.01 | 0.01 | 35 | 1011.8 |
| 20260509172901 | 81 | 328 | 1.0 | 1.0 | 0.00 | 0.01 | 0.01 | 40 | 1011.8 |
| 20260509172357 | 80 | 355 | 2.0 | 3.0 | 0.00 | 0.01 | 0.01 | 36 | 1011.8 |
| 20260509171853 | 80 | 338 | 0.0 | 1.0 | 0.00 | 0.01 | 0.01 | 36 | 1012.1 |
| 20260509171349 | 80 | 342 | 1.0 | 1.0 | 0.00 | 0.01 | 0.01 | 37 | 1011.8 |
| 20260509170845 | 80 | 17 | 3.0 | 3.0 | 0.00 | 0.01 | 0.01 | 35 | 1012.1 |
| 20260509170336 | 80 | 30 | 3.0 | 3.0 | 0.00 | 0.01 | 0.01 | 38 | 1012.1 |
| 20260509165836 | 80 | 353 | 2.0 | 2.0 | 0.00 | 0.01 | 0.01 | 39 | 1012.1 |
| 20260509165330 | 80 | 342 | 1.0 | 2.0 | 0.00 | 0.01 | 0.01 | 42 | 1012.1 |
| 20260509164826 | 80 | 353 | 2.0 | 2.0 | 0.00 | 0.01 | 0.01 | 41 | 1012.1 |
| 20260509164323 | 80 | 2 | 1.0 | 1.0 | 0.00 | 0.01 | 0.01 | 41 | 1012.1 |
| 20260509163820 | 79 | 4 | 2.0 | 2.0 | 0.00 | 0.01 | 0.01 | 41 | 1012.5 |
| 20260509163317 | 78 | 22 | 4.0 | 5.0 | 0.00 | 0.01 | 0.01 | 43 | 1012.5 |
| 20260509162816 | 77 | 22 | 3.0 | 3.0 | 0.00 | 0.01 | 0.01 | 44 | 1012.5 |
| 20260509162314 | 78 | 356 | 2.0 | 2.0 | 0.00 | 0.01 | 0.01 | 44 | 1012.5 |
| 20260509161811 | 78 | 357 | 2.0 | 2.0 | 0.00 | 0.01 | 0.01 | 45 | 1012.5 |
| 20260509161307 | 77 | 342 | 0.0 | 0.0 | 0.00 | 0.01 | 0.01 | 49 | 1012.5 |
| 20260509160802 | 77 | 75 | 3.0 | 3.0 | 0.00 | 0.01 | 0.01 | 47 | 1012.8 |
| 20260509160259 | 76 | 335 | 0.0 | 0.0 | 0.00 | 0.01 | 0.01 | 50 | 1012.5 |
| 20260509155754 | 76 | 353 | 0.0 | 0.0 | 0.00 | 0.01 | 0.01 | 49 | 1012.5 |
| 20260509155251 | 75 | 352 | 1.0 | 1.0 | 0.00 | 0.01 | 0.01 | 52 | 1011.8 |
| 20260509154747 | 75 | 2 | 3.0 | 3.0 | 0.00 | 0.01 | 0.01 | 51 | 1012.1 |
| 20260509154244 | 75 | 2 | 0.0 | 0.0 | 0.00 | 0.01 | 0.01 | 59 | 1012.1 |
| 20260509153741 | 74 | 355 | 1.0 | 1.0 | 0.00 | 0.01 | 0.01 | 59 | 1012.1 |
| 20260509153237 | 73 | 17 | 1.0 | 2.0 | 0.00 | 0.01 | 0.01 | 58 | 1012.5 |
| 20260509152734 | 73 | 279 | 3.0 | 3.0 | 0.00 | 0.01 | 0.01 | 60 | 1012.5 |
| 20260509152230 | 72 | 340 | 1.0 | 1.0 | 0.00 | 0.01 | 0.01 | 64 | 1012.1 |
| 20260509151727 | 71 | 283 | 2.0 | 2.0 | 0.00 | 0.01 | 0.01 | 66 | 1012.5 |
| 20260509151224 | 72 | 339 | 2.0 | 2.0 | 0.00 | 0.01 | 0.01 | 70 | 1012.1 |
| 20260509150722 | 71 | 358 | 2.0 | 2.0 | 0.00 | 0.01 | 0.01 | 71 | 1012.1 |
| 20260509150220 | 70 | 26 | 2.0 | 2.0 | 0.00 | 0.01 | 0.01 | 72 | 1012.5 |
| 20260509145716 | 70 | 298 | 3.0 | 2.0 | 0.00 | 0.01 | 0.01 | 74 | 1012.1 |
| 20260509145211 | 71 | 0 | 1.0 | 1.0 | 0.00 | 0.01 | 0.01 | 68 | 1012.5 |
| 20260509144708 | 70 | 353 | 0.0 | 0.0 | 0.00 | 0.01 | 0.01 | 71 | 1012.1 |
| 20260509144205 | 69 | 354 | 0.0 | 0.0 | 0.00 | 0.01 | 0.01 | 71 | 1012.5 |
| 20260509143702 | 70 | 357 | 1.0 | 1.0 | 0.00 | 0.01 | 0.01 | 72 | 1012.1 |
| 20260509143159 | 69 | 3 | 0.0 | 1.0 | 0.00 | 0.01 | 0.01 | 73 | 1012.1 |
| 20260509142655 | 68 | 354 | 0.0 | 0.0 | 0.00 | 0.01 | 0.01 | 75 | 1012.1 |
| 20260509142152 | 68 | 357 | 0.0 | 0.0 | 0.00 | 0.01 | 0.01 | 77 | 1012.1 |
| 20260509141647 | 67 | 352 | 1.0 | 1.0 | 0.00 | 0.01 | 0.01 | 78 | 1012.1 |
| 20260509141144 | 66 | 355 | 1.0 | 1.0 | 0.00 | 0.01 | 0.01 | 78 | 1011.8 |
| 20260509140641 | 65 | 353 | 1.0 | 1.0 | 0.00 | 0.01 | 0.01 | 81 | 1012.1 |
| 20260509140139 | 65 | 348 | 2.0 | 1.0 | 0.00 | 0.01 | 0.01 | 83 | 1011.8 |
| 20260509135636 | 64 | 293 | 3.0 | 2.0 | 0.00 | 0.01 | 0.01 | 83 | 1011.8 |
| 20260509135134 | 64 | 347 | 2.0 | 2.0 | 0.00 | 0.01 | 0.01 | 82 | 1011.8 |
| 20260509134630 | 64 | 353 | 1.0 | 1.0 | 0.00 | 0.01 | 0.01 | 83 | 1011.8 |
| 20260509134128 | 63 | 323 | 0.0 | 0.0 | 0.00 | 0.01 | 0.01 | 86 | 1011.8 |
| 20260509133625 | 61 | 0 | 2.0 | 2.0 | 0.00 | 0.01 | 0.01 | 87 | 1011.8 |
| 20260509133122 | 61 | 347 | 0.0 | 0.0 | 0.00 | 0.01 | 0.01 | 87 | 1011.8 |
| 20260509132620 | 61 | 317 | 1.0 | 1.0 | 0.00 | 0.01 | 0.01 | 86 | 1011.8 |
| 20260509132119 | 61 | 338 | 0.0 | 0.0 | 0.00 | 0.01 | 0.01 | 85 | 1011.8 |
| 20260509131614 | 59 | 337 | 0.0 | 0.0 | 0.00 | 0.01 | 0.01 | 85 | 1011.8 |
| 20260509131112 | 59 | 337 | 0.0 | 0.0 | 0.00 | 0.01 | 0.01 | 86 | 1011.8 |
| 20260509130607 | 57 | 337 | 0.0 | 0.0 | 0.00 | 0.01 | 0.01 | 87 | 1011.8 |
| 20260509130104 | 56 | 337 | 0.0 | 0.0 | 0.00 | 0.01 | 0.01 | 88 | 1012.1 |
| 20260509125600 | 55 | 337 | 0.0 | 0.0 | 0.00 | 0.01 | 0.01 | 88 | 1011.8 |
| 20260509125057 | 53 | 337 | 0.0 | 0.0 | 0.00 | 0.01 | 0.01 | 90 | 1011.8 |
| 20260509124553 | 52 | 337 | 0.0 | 0.0 | 0.00 | 0.01 | 0.01 | 95 | 1011.8 |
| 20260509124051 | 52 | 337 | 0.0 | 0.0 | 0.00 | 0.01 | 0.01 | 95 | 1011.8 |
| 20260509123549 | 52 | 337 | 0.0 | 0.0 | 0.00 | 0.01 | 0.01 | 97 | 1011.8 |
| 20260509123045 | 51 | 304 | 0.0 | 0.0 | 0.00 | 0.01 | 0.01 | 98 | 1011.8 |
| 20260509122541 | 51 | 304 | 0.0 | 0.0 | 0.00 | 0.01 | 0.01 | 99 | 1011.8 |
| 20260509122038 | 50 | 304 | 0.0 | 0.0 | 0.00 | 0.01 | 0.01 | 99 | 1011.8 |
| 20260509121534 | 50 | 304 | 0.0 | 1.0 | 0.00 | 0.01 | 0.01 | 99 | 1011.8 |
| 20260509121032 | 49 | 304 | 1.0 | 1.0 | 0.00 | 0.01 | 0.01 | 99 | 1011.4 |
| 20260509120531 | 49 | 304 | 0.0 | 0.0 | 0.00 | 0.01 | 0.01 | 99 | 1011.4 |
| 20260509120029 | 48 | 304 | 0.0 | 0.0 | 0.00 | 0.01 | 0.01 | 99 | 1011.4 |
| 20260509115525 | 48 | 304 | 0.0 | 0.0 | 0.00 | 0.01 | 0.01 | 99 | 1011.4 |
| 20260509115023 | 48 | 304 | 0.0 | 0.0 | 0.00 | 0.01 | 0.01 | 99 | 1011.4 |
| 20260509114521 | 48 | 304 | 0.0 | 0.0 | 0.00 | 0.01 | 0.01 | 99 | 1011.4 |
| 20260509114020 | 48 | 304 | 1.0 | 1.0 | 0.00 | 0.01 | 0.01 | 99 | 1011.1 |
| 20260509113518 | 48 | 304 | 0.0 | 0.0 | 0.00 | 0.01 | 0.01 | 99 | 1011.4 |
| 20260509113015 | 48 | 304 | 0.0 | 0.0 | 0.00 | 0.01 | 0.01 | 99 | 1011.1 |